FW0249 Weather Reports


time (UTC)temp
F
wind
direction
speed
knots
gust
knots
rain 1hr
in
rain 24hr
in
rain mn
in
humidity
%
barometer
mb
20260506131556 51 193 0.0 0.0 0.00 0.00 0.00 90 1020.5
20260506130054 51 193 0.0 1.7 0.00 0.00 0.00 90 1020.2
20260506124556 51 193 0.0 1.7 0.00 0.00 0.00 91 1020.3
20260506123053 51 193 0.0 0.0 0.00 0.00 0.00 90 1020.4
20260506121553 51 193 0.0 0.0 0.00 0.00 0.00 90 1020.1
20260506120051 51 193 0.0 1.7 0.00 0.00 0.00 90 1020.0
20260506114557 51 193 0.0 0.9 0.00 0.00 0.00 90 1020.0
20260506113052 51 193 0.0 0.9 0.00 0.00 0.00 90 1020.4
20260506111551 51 193 0.0 0.9 0.00 0.00 0.00 90 1020.4
20260506110046 51 193 0.0 0.9 0.00 0.00 0.00 90 1020.3
20260506104554 51 193 0.0 0.0 0.00 0.00 0.00 90 1020.0
20260506103044 51 193 0.0 0.9 0.00 0.00 0.00 90 1019.9
20260506101549 51 193 0.0 0.0 0.00 0.00 0.00 90 1020.1
20260506100040 51 193 0.0 0.0 0.00 0.00 0.00 91 1020.1
20260506094539 51 193 0.0 0.9 0.00 0.00 0.00 91 1019.9
20260506093037 51 193 0.0 2.6 0.00 0.00 0.00 91 1019.5
20260506091537 51 194 0.0 0.0 0.00 0.00 0.00 91 1019.5
20260506090036 51 194 0.0 2.6 0.00 0.00 0.00 91 1019.6
20260506084540 52 163 0.0 0.0 0.00 0.00 0.00 92 1019.6
20260506083033 52 162 0.0 0.0 0.00 0.00 0.00 92 1019.6
20260506081531 52 159 0.0 2.6 0.00 0.00 0.00 92 1019.6
20260506073026 52 246 0.0 1.7 0.00 0.00 0.00 91 1019.5
20260506071523 52 247 0.0 0.9 0.00 0.00 0.00 91 1019.4
20260506061517 53 180 0.0 2.6 0.00 0.00 0.00 90 1019.0
20260506044515 54 238 0.0 3.5 0.00 0.00 0.00 88 1018.8
20260506043011 54 234 0.0 2.6 0.00 0.00 0.00 88 1018.8
20260506041511 55 234 0.0 0.9 0.00 0.00 0.00 88 1018.7
20260506040018 55 234 0.0 0.0 0.00 0.00 0.00 87 1018.6
20260506034511 55 227 0.0 2.6 0.00 0.00 0.00 87 1018.3
20260506033008 56 237 0.0 0.9 0.00 0.00 0.00 87 1018.2
20260506031508 56 237 0.0 0.0 0.00 0.00 0.00 86 1017.9
20260506030007 56 236 0.0 0.9 0.00 0.00 0.00 85 1017.7
20260506024506 56 234 0.0 2.6 0.00 0.00 0.00 84 1017.8
20260506023006 57 163 0.9 2.6 0.00 0.00 0.00 83 1017.7
20260506021511 58 174 0.0 4.3 0.00 0.00 0.00 82 1017.9
20260506020004 58 209 0.0 2.6 0.00 0.00 0.00 82 1018.0
20260506014503 59 111 0.9 3.5 0.00 0.00 0.00 80 1017.9
20260506013001 60 211 0.0 5.2 0.00 0.00 0.00 78 1017.7
20260506011502 61 166 0.9 5.2 0.00 0.00 0.00 79 1017.8
20260506010118 61 148 0.9 3.5 0.00 0.00 0.00 77 1017.7
20260506004602 61 198 0.9 8.7 0.00 0.00 0.00 77 1017.8
20260506003058 62 146 0.9 6.1 0.00 0.00 0.00 78 1017.9
20260506001558 63 243 1.7 5.2 0.00 0.00 0.00 73 1017.8
20260506000057 63 196 2.6 7.8 0.00 0.00 0.00 73 1017.9
20260505234606 63 196 2.6 6.1 0.00 0.00 0.00 73 1018.1
20260505233050 64 68 0.9 4.3 0.00 0.00 0.00 72 1018.0
20260505231548 64 350 0.9 4.3 0.00 0.00 0.00 74 1017.8
20260505230046 64 169 0.9 4.3 0.00 0.00 0.00 74 1018.0
20260505224543 64 271 0.9 5.2 0.00 0.00 0.00 72 1017.9
20260505223042 64 205 2.6 6.1 0.00 0.00 0.00 72 1018.2
20260505221539 64 101 4.3 7.8 0.00 0.00 0.00 72 1018.3
20260505220035 64 224 1.7 4.3 0.00 0.00 0.00 72 1018.2
20260505214557 62 154 0.0 2.6 0.00 0.00 0.00 77 1018.0
20260505213028 62 138 0.9 4.3 0.00 0.00 0.00 77 1018.2
20260505211526 62 169 0.9 5.2 0.00 0.00 0.00 77 1018.4
20260505210022 61 254 0.0 3.5 0.00 0.00 0.00 78 1018.4
20260505204520 60 175 0.9 3.5 0.00 0.00 0.00 80 1018.5
20260505203026 60 347 0.9 4.3 0.00 0.00 0.00 81 1018.7
20260505201522 59 202 0.9 6.1 0.00 0.00 0.00 81 1018.5
20260505200009 59 191 1.7 4.3 0.00 0.00 0.00 81 1018.6
20260505194505 58 220 1.7 5.2 0.00 0.00 0.00 83 1018.5
20260505193002 58 143 1.7 6.1 0.00 0.00 0.00 84 1018.4
20260505191603 58 16 0.9 3.5 0.00 0.00 0.00 85 1018.4
20260505190056 57 178 1.7 3.5 0.00 0.00 0.00 85 1018.3
20260505184555 57 244 0.0 4.3 0.00 0.00 0.00 86 1018.2
20260505183054 57 185 0.0 4.3 0.00 0.00 0.00 86 1018.0
20260505181548 56 140 0.0 6.1 0.00 0.00 0.00 87 1017.9
20260505180104 56 246 0.0 3.5 0.00 0.00 0.00 87 1017.8
20260505174559 56 214 0.0 2.6 0.00 0.00 0.00 88 1017.6
20260505173046 56 215 1.7 3.5 0.00 0.00 0.00 87 1017.7
20260505171541 55 228 0.0 3.5 0.00 0.00 0.00 88 1017.6
20260505170039 55 190 0.0 2.6 0.00 0.00 0.00 88 1017.5
20260505164536 55 242 0.0 2.6 0.00 0.00 0.00 89 1017.6
20260505163035 55 269 0.0 0.9 0.00 0.00 0.00 89 1017.5
20260505161535 54 213 0.0 2.6 0.00 0.00 0.00 90 1017.4
20260505153028 54 140 0.0 4.3 0.00 0.00 0.00 91 1017.1
20260505151521 53 159 0.0 4.3 0.00 0.00 0.00 91 1017.0